Location: Archemont
(49.1579°N, 1.7598°E)
Time: 21:40:58
(UTC+00:00)

Tiros 1 despin weight - All Passes

Search period start: 12 April 2024 00:00
Search period end: 22 April 2024 00:00
Orbit: 579 x 623 km, 48.2° (Epoch: 12 April)

Date Brightness Start Highest point End Pass type
(mag) Time Alt. Az. Time Alt. Az. Time Alt. Az.
12 Apr - 15:02:39 10° S 15:05:52 19° SE 15:09:07 10° E daylight
12 Apr - 16:42:00 10° WSW 16:46:26 54° SSE 16:50:55 10° E daylight
12 Apr - 18:22:56 10° W 18:27:31 81° S 18:32:07 10° E daylight
12 Apr - 20:04:07 10° W 20:08:36 54° SSW 20:13:05 10° ESE visible
12 Apr - 21:45:55 10° W 21:49:11 19° SW 21:52:26 10° S visible
13 Apr - 15:12:47 10° SSW 15:16:40 29° SSE 15:20:35 10° E daylight
13 Apr - 16:52:56 10° WSW 16:57:27 68° SSE 17:02:01 10° E daylight
13 Apr - 18:34:01 10° W 18:38:35 77° S 18:43:11 10° ESE daylight
13 Apr - 20:15:15 10° W 20:19:33 40° SSW 20:23:51 10° SE visible
13 Apr - 21:58:06 10° WSW 21:59:53 12° SW 22:01:40 10° SSW visible
14 Apr - 13:45:26 10° SSE 13:47:13 12° SE 13:49:01 10° ESE daylight
14 Apr - 15:23:18 10° SW 15:27:32 41° SSE 15:31:50 10° E daylight
14 Apr - 17:03:57 10° W 17:08:30 78° S 17:13:05 10° E daylight
14 Apr - 18:45:06 10° W 18:49:39 67° SSW 18:54:12 10° ESE daylight
14 Apr - 20:26:30 10° W 20:30:25 28° SSW 20:34:21 10° SSE visible
15 Apr - 13:54:42 10° S 13:57:55 19° SE 14:01:09 10° E daylight
15 Apr - 15:34:04 10° WSW 15:38:28 55° SSE 15:42:56 10° E daylight
15 Apr - 17:15:00 10° W 17:19:33 81° S 17:24:09 10° E daylight
15 Apr - 18:56:10 10° W 19:00:38 54° SSW 19:05:07 10° ESE daylight
15 Apr - 20:37:58 10° W 20:41:12 19° SW 20:44:26 10° S visible
16 Apr - 14:04:49 10° SSW 14:08:41 29° SSE 14:12:36 10° E daylight
16 Apr - 15:44:58 10° WSW 15:49:28 68° SSE 15:54:01 10° E daylight
16 Apr - 17:26:03 10° W 17:30:37 77° S 17:35:11 10° ESE daylight
16 Apr - 19:07:17 10° W 19:11:33 40° SSW 19:15:50 10° SE daylight
16 Apr - 20:50:11 10° WSW 20:51:53 12° SW 20:53:36 10° SSW visible
17 Apr - 12:37:26 10° SSE 12:39:13 12° SE 12:41:01 10° ESE daylight
17 Apr - 14:15:20 10° SW 14:19:32 41° SSE 14:23:49 10° E daylight
17 Apr - 15:55:58 10° W 16:00:30 78° S 16:05:04 10° E daylight
17 Apr - 17:37:07 10° W 17:41:38 67° SSW 17:46:11 10° ESE daylight
17 Apr - 19:18:30 10° W 19:22:24 28° SSW 19:26:19 10° SSE visible
18 Apr - 12:46:42 10° S 12:49:54 20° SE 12:53:08 10° E daylight
18 Apr - 14:26:04 10° WSW 14:30:28 55° SSE 14:34:55 10° E daylight
18 Apr - 16:07:01 10° W 16:11:32 81° S 16:16:07 10° E daylight
18 Apr - 17:48:10 10° W 17:52:37 53° SSW 17:57:04 10° SE daylight
18 Apr - 19:29:58 10° W 19:33:10 19° SW 19:36:22 10° S visible
19 Apr - 12:56:49 10° SSW 13:00:39 29° SSE 13:04:33 10° E daylight
19 Apr - 14:36:59 10° WSW 14:41:26 68° SSE 14:45:58 10° E daylight
19 Apr - 16:18:03 10° W 16:22:34 77° S 16:27:09 10° ESE daylight
19 Apr - 17:59:17 10° W 18:03:31 39° SSW 18:07:47 10° SE daylight
19 Apr - 19:42:13 10° WSW 19:43:50 12° SW 19:45:28 10° SSW visible
20 Apr - 11:29:23 10° SSE 11:31:11 12° SE 11:32:59 10° ESE daylight
20 Apr - 13:07:19 10° SW 13:11:30 41° SSE 13:15:45 10° E daylight
20 Apr - 14:47:57 10° W 14:52:27 78° S 14:57:00 10° E daylight
20 Apr - 16:29:05 10° W 16:33:35 67° SSW 16:38:07 10° ESE daylight
20 Apr - 18:10:29 10° W 18:14:21 28° SSW 18:18:14 10° SSE daylight
21 Apr - 11:38:40 10° S 11:41:50 20° SE 11:45:03 10° E daylight
21 Apr - 13:18:03 10° WSW 13:22:24 55° SSE 13:26:50 10° E daylight
21 Apr - 14:58:58 10° W 15:03:29 81° S 15:08:02 10° E daylight
21 Apr - 16:40:08 10° W 16:44:32 53° SSW 16:48:59 10° SE daylight
21 Apr - 18:21:57 10° W 18:25:06 19° SW 18:28:16 10° S daylight
